Location: 81360 Arifat, France
(43.7204°N, 2.3408°E)
Time: 23:05:46
(UTC+02:00)

N. Korean satellite - Pass Details

Date: 29 September 2021
Orbit: 450 x 495 km, 97.3° (Epoch: 25 October)

Event Time Altitude Azimuth Distance (km) Brightness Sun altitude
Rises 06:47:07 0° 18° (NNE) 2,541 10.6 -11.4°
Reaches altitude 10° 06:49:15 10° 26° (NNE) 1,665 9.7 -11.1°
Maximum altitude 06:52:40 43° 99° (E) 692 7.9 -10.4°
Drops below altitude 10° 06:56:07 10° 172° (S) 1,672 9.3 -9.8°
Sets 06:58:16 0° 179° (S) 2,554 10.2 -9.4°
